Weather History for KSZL - December, 2013

Change the Weather History Date:

Sunday, December 8, 2013

  Actual Average Record
Temperature  
Mean Temperature 22 °F -  
Max Temperature 25 °F 44 °F - (-1)
Min Temperature 19 °F 27 °F - (-1)
Degree Days  
Heating Degree Days 43    
Moisture  
Dew Point 17 °F    
Average Humidity 81    
Maximum Humidity 100    
Minimum Humidity 52    
Precipitation  
Precipitation 0.00 in - - ()
Snow  
Snow 0.00 in - - ()
Snow Depth 0.00 in    
Sea Level Pressure  
Sea Level Pressure 30.13 in    
Wind  
Wind Speed 7 mph (SSW)    
Max Wind Speed 10 mph    
Max Gust Speed -    
Visibility 7 miles    
Events Snow    
Averages and records for this station are not official NWS values.
T = Trace of Precipitation, MM = Missing Value Source: NWS Daily Summary

Daily Weather History Graph

Daily Weather History Graph

Search for Another Location

Airport or City:

Trip Planner

Search our weather history database for the weather conditions in past years. The results will help you decide how hot, cold, wet, or windy it might be!

Date:

Astronomy

Dec. 08, 2013 Rise Set
Actual Time 7:19 AM CST 4:52 PM CST
Civil Twilight 6:50 AM CST 5:22 PM CST
Nautical Twilight 6:17 AM CST 5:55 PM CST
Astronomical Twilight 5:44 AM CST 6:27 PM CST
Moon 11:43 AM CST (12/8) 11:39 PM CST (12/8)
Length of Visible Light 10h 31m
Length of Day
9h 32m
Waxing Crescent, 40% of the Moon is Illuminated
Dec 8
Waxing Crescent
Dec 9
First Quarter
Dec 17
Full
Dec 25
Last Quarter
Jan 1
New

Hourly Weather History & Observations

Time (CST) Temp. Windchill Dew Point Humidity Pressure Visibility Wind Dir Wind Speed Gust Speed Precip Events Conditions
12:58 AM 19.9 °F 9.3 °F 4.6 °F 52% 30.41 in 10.0 mi ESE 9.2 mph - N/A   Overcast
1:02 AM 19.4 °F 9.5 °F 5.0 °F 54% 30.35 in 10.0 mi East 8.1 mph - N/A Snow Light Snow
1:54 AM 19.4 °F 7.9 °F 5.0 °F 54% 30.30 in 10.0 mi East 10.4 mph - N/A   Overcast
1:58 AM 19.6 °F 8.1 °F 5.7 °F 55% 30.35 in 10.0 mi East 10.4 mph - 0.00 in   Overcast
2:58 AM 19.6 °F 11.7 °F 8.1 °F 61% 30.35 in 10.0 mi Variable 5.8 mph - N/A   Overcast
2:59 AM 19.4 °F 11.5 °F 8.6 °F 63% 30.29 in 10.0 mi East 5.8 mph - N/A Snow Light Snow
3:06 AM 19.4 °F 7.9 °F 8.6 °F 63% 30.28 in 10.0 mi East 10.4 mph - N/A   Overcast
3:58 AM 19.4 °F 9.5 °F 9.9 °F 66% 30.30 in 10.0 mi East 8.1 mph - 0.00 in   Overcast
4:58 AM 19.2 °F 10.2 °F 10.4 °F 69% 30.27 in 10.0 mi East 6.9 mph - N/A   Overcast
5:58 AM 19.2 °F 10.2 °F 10.8 °F 70% 30.25 in 10.0 mi ENE 6.9 mph - N/A   Overcast
6:58 AM 19.2 °F 9.3 °F 11.1 °F 71% 30.22 in 10.0 mi East 8.1 mph - N/A   Overcast
7:38 AM 19.4 °F 10.4 °F 12.2 °F 74% 30.17 in 10.0 mi East 6.9 mph - N/A   Overcast
7:58 AM 19.8 °F 13.2 °F 12.2 °F 72% 30.22 in 10.0 mi ESE 4.6 mph - N/A   Overcast
8:03 AM 19.4 °F 10.4 °F 12.2 °F 74% 30.17 in 9.0 mi ESE 6.9 mph - N/A Snow Light Snow
8:23 AM 19.4 °F 11.5 °F 14.0 °F 80% 30.17 in 3.0 mi SE 5.8 mph - N/A Snow Light Snow
8:38 AM 19.4 °F 7.9 °F 15.8 °F 86% 30.16 in 5.0 mi SE 10.4 mph - N/A Snow Light Snow
8:53 AM 19.4 °F 9.5 °F 15.8 °F 86% 30.15 in 4.0 mi SE 8.1 mph - N/A Snow Light Snow
8:58 AM 20.3 °F 10.6 °F 15.4 °F 81% 30.20 in 4.0 mi SE 8.1 mph - 0.00 in Snow Light Snow
9:03 AM 19.4 °F 9.5 °F 15.8 °F 86% 30.15 in 4.0 mi SE 8.1 mph - N/A Snow Light Snow
9:58 AM 21.2 °F 10.9 °F 16.0 °F 80% 30.19 in 5.0 mi SE 9.2 mph - 0.00 in Snow Light Snow
10:03 AM 21.2 °F 12.6 °F 15.8 °F 80% 30.14 in 4.0 mi SSE 6.9 mph - N/A Snow Light Snow
10:58 AM 21.9 °F 14.5 °F 16.7 °F 80% 30.16 in 4.0 mi SSE 5.8 mph - 0.00 in Snow Light Snow
11:24 AM 23.0 °F 13.1 °F 17.6 °F 80% 30.10 in 3.0 mi South 9.2 mph - N/A Snow Light Snow
11:29 AM 23.0 °F 13.9 °F 17.6 °F 80% 30.10 in 2.5 mi South 8.1 mph - N/A Snow Light Snow
11:39 AM 23.0 °F 13.9 °F 17.6 °F 80% 30.09 in 1.8 mi South 8.1 mph - N/A Snow Light Snow
11:58 AM 22.5 °F 12.4 °F 19.0 °F 87% 30.12 in 2.0 mi South 9.2 mph - 0.00 in Snow Light Snow
12:16 PM 23.0 °F 12.4 °F 19.4 °F 86% 30.04 in 4.0 mi South 10.4 mph - N/A Snow Light Snow
12:44 PM 23.0 °F 13.1 °F 19.4 °F 86% 30.02 in 7.0 mi South 9.2 mph - N/A   Partly Cloudy
12:58 PM 23.7 °F 14.7 °F 18.3 °F 80% 30.07 in 10.0 mi South 8.1 mph - 0.00 in   Overcast
1:58 PM 24.3 °F 17.3 °F 18.3 °F 78% 30.05 in 10.0 mi SW 5.8 mph - N/A   Overcast
2:43 PM 24.8 °F 16.9 °F 19.4 °F 80% 29.99 in 10.0 mi WSW 6.9 mph - N/A   Scattered Clouds
2:58 PM 25.2 °F 18.3 °F 19.0 °F 78% 30.04 in 10.0 mi WSW 5.8 mph - N/A   Overcast
3:58 PM 24.8 °F 17.9 °F 19.4 °F 80% 30.05 in 10.0 mi SSW 5.8 mph - N/A Snow Light Snow
4:39 PM 24.8 °F 16.9 °F 19.4 °F 80% 30.00 in 10.0 mi SSW 6.9 mph - N/A   Overcast
4:58 PM 24.3 °F 18.4 °F 20.5 °F 85% 30.05 in 10.0 mi WSW 4.6 mph - 0.00 in   Overcast
5:08 PM 24.8 °F 17.9 °F 21.2 °F 86% 30.01 in 10.0 mi SW 5.8 mph - N/A   Mostly Cloudy
5:13 PM 24.8 °F 20.5 °F 21.2 °F 86% 30.01 in 10.0 mi WSW 3.5 mph - N/A   Mostly Cloudy
5:23 PM 24.8 °F 20.5 °F 21.2 °F 86% 30.01 in 10.0 mi West 3.5 mph - N/A   Overcast
5:38 PM 23.0 °F 17.0 °F 21.2 °F 93% 30.02 in 8.0 mi West 4.6 mph - N/A   Overcast
5:58 PM 23.9 °F 19.5 °F 21.9 °F 92% 30.08 in 8.0 mi West 3.5 mph - N/A   Overcast
6:13 PM 23.0 °F 17.0 °F 23.0 °F 100% 30.04 in 7.0 mi West 4.6 mph - N/A   Overcast
6:28 PM 23.0 °F 18.4 °F 23.0 °F 100% 30.04 in 6.0 mi West 3.5 mph - N/A   Overcast
6:33 PM 23.0 °F 18.4 °F 23.0 °F 100% 30.04 in 6.0 mi West 3.5 mph - N/A   Overcast
6:53 PM 24.8 °F 19.1 °F 23.0 °F 93% 30.05 in 5.0 mi West 4.6 mph - N/A   Overcast
6:55 PM 24.8 °F 19.1 °F 23.0 °F 93% 30.06 in 5.0 mi West 4.6 mph - N/A   Mostly Cloudy
6:58 PM 24.8 °F 19.1 °F 23.0 °F 93% 30.11 in 5.0 mi West 4.6 mph - N/A   Mostly Cloudy
7:03 PM 24.8 °F 19.1 °F 23.0 °F 93% 30.06 in 5.0 mi West 4.6 mph - N/A   Mostly Cloudy
7:18 PM 24.8 °F 19.1 °F 23.0 °F 93% 30.06 in 5.0 mi WNW 4.6 mph - N/A   Light Freezing Drizzle
7:23 PM 24.8 °F 19.1 °F 23.0 °F 93% 30.06 in 5.0 mi WNW 4.6 mph - N/A   Light Freezing Drizzle
7:55 PM 24.8 °F 19.1 °F 23.0 °F 93% 30.12 in 5.0 mi WNW 4.6 mph - N/A   Light Freezing Drizzle
8:44 PM 24.8 °F 17.9 °F 23.0 °F 93% 30.07 in 5.0 mi West 5.8 mph - N/A Snow Light Freezing Drizzle
8:55 PM 24.3 °F 17.3 °F 22.8 °F 94% 30.13 in 6.0 mi WNW 5.8 mph - 0.00 in Snow Light Freezing Drizzle
9:15 PM 24.8 °F 17.9 °F 23.0 °F 93% 30.09 in 7.0 mi WNW 5.8 mph - N/A Snow Light Snow
9:55 PM 24.8 °F 17.9 °F 21.2 °F 86% 30.15 in 10.0 mi West 5.8 mph - N/A Snow Light Snow
10:55 PM 23.9 °F 16.8 °F 21.4 °F 90% 30.17 in 10.0 mi West 5.8 mph - 0.00 in Snow Light Snow
11:55 PM 23.5 °F 13.0 °F 20.5 °F 88% 30.19 in 10.0 mi WNW 10.4 mph - 0.00 in   Mostly Cloudy